| time (UTC) | temp F | wind direction | speed MPH | gust MPH | rain 1hr in | rain 24hr in | rain mn in | humidity % | barometer mb |
| 20260905070513 | 56 | 320 | 0.0 | 0.0 | 0.00 | 0.00 | 0.00 | 65 | 1012.9 |
| 20260905070013 | 55 | 320 | 0.0 | 0.0 | 0.00 | 0.00 | 0.00 | 65 | 1012.8 |
| 20260905065513 | 55 | 320 | 0.0 | 0.0 | 0.00 | 0.00 | 0.00 | 65 | 1012.8 |
| 20260905065012 | 55 | 320 | 0.0 | 5.0 | 0.00 | 0.00 | 0.00 | 65 | 1012.8 |
| 20260905064513 | 55 | 320 | 0.0 | 5.0 | 0.00 | 0.00 | 0.00 | 65 | 1012.8 |
| 20260905064013 | 55 | 324 | 0.0 | 0.0 | 0.00 | 0.00 | 0.00 | 66 | 1012.8 |
| 20260905063515 | 55 | 324 | 0.0 | 0.0 | 0.00 | 0.00 | 0.00 | 64 | 1012.8 |
| 20260905063014 | 56 | 324 | 0.0 | 0.0 | 0.00 | 0.00 | 0.00 | 63 | 1012.8 |
| 20260905062515 | 56 | 324 | 0.0 | 0.0 | 0.00 | 0.00 | 0.00 | 64 | 1012.7 |
| 20260905062012 | 56 | 324 | 0.0 | 0.0 | 0.00 | 0.00 | 0.00 | 64 | 1012.7 |
| 20260905061515 | 55 | 324 | 0.0 | 0.0 | 0.00 | 0.00 | 0.00 | 64 | 1012.6 |
| 20260905061012 | 55 | 324 | 0.0 | 0.0 | 0.00 | 0.00 | 0.00 | 64 | 1012.6 |
| 20260905060512 | 55 | 324 | 0.0 | 0.0 | 0.00 | 0.00 | 0.00 | 64 | 1012.6 |
| 20260905060013 | 55 | 324 | 0.0 | 0.0 | 0.00 | 0.00 | 0.00 | 64 | 1012.6 |
| 20260905055512 | 55 | 324 | 0.0 | 0.0 | 0.00 | 0.00 | 0.00 | 64 | 1012.6 |
| 20260905055016 | 55 | 324 | 0.0 | 0.0 | 0.00 | 0.00 | 0.00 | 64 | 1012.7 |
| 20260905054514 | 55 | 324 | 0.0 | 0.0 | 0.00 | 0.00 | 0.00 | 63 | 1012.7 |
| 20260905054012 | 56 | 324 | 0.0 | 0.0 | 0.00 | 0.00 | 0.00 | 63 | 1012.6 |
| 20260905053512 | 56 | 324 | 0.0 | 0.0 | 0.00 | 0.00 | 0.00 | 63 | 1012.6 |
| 20260905053115 | 56 | 324 | 0.0 | 0.0 | 0.00 | 0.00 | 0.00 | 63 | 1012.6 |
| 20260905052512 | 56 | 324 | 0.0 | 0.0 | 0.00 | 0.00 | 0.00 | 62 | 1012.6 |
| 20260905052014 | 56 | 324 | 0.0 | 0.0 | 0.00 | 0.00 | 0.00 | 62 | 1012.7 |
| 20260905051616 | 56 | 324 | 0.0 | 0.0 | 0.00 | 0.00 | 0.00 | 62 | 1012.7 |
| 20260905051012 | 56 | 324 | 0.0 | 0.0 | 0.00 | 0.00 | 0.00 | 63 | 1012.7 |
| 20260905050512 | 56 | 324 | 0.0 | 0.0 | 0.00 | 0.00 | 0.00 | 63 | 1012.7 |
| 20260905050113 | 56 | 324 | 0.0 | 0.0 | 0.00 | 0.00 | 0.00 | 63 | 1012.7 |
| 20260905045513 | 56 | 324 | 0.0 | 0.0 | 0.00 | 0.00 | 0.00 | 61 | 1012.6 |
| 20260905045013 | 56 | 324 | 0.0 | 0.0 | 0.00 | 0.00 | 0.00 | 61 | 1012.6 |
| 20260905044514 | 57 | 324 | 0.0 | 0.0 | 0.00 | 0.00 | 0.00 | 61 | 1012.5 |
| 20260905044018 | 57 | 324 | 0.0 | 0.0 | 0.00 | 0.00 | 0.00 | 61 | 1012.4 |
| 20260905043513 | 57 | 324 | 0.0 | 0.0 | 0.00 | 0.00 | 0.00 | 60 | 1012.4 |
| 20260905043013 | 57 | 324 | 0.0 | 1.0 | 0.00 | 0.00 | 0.00 | 59 | 1012.3 |
| 20260905042513 | 57 | 324 | 0.0 | 1.0 | 0.00 | 0.00 | 0.00 | 59 | 1012.2 |
| 20260905042014 | 58 | 324 | 0.0 | 0.0 | 0.00 | 0.00 | 0.00 | 58 | 1012.2 |
| 20260905041516 | 58 | 324 | 0.0 | 0.0 | 0.00 | 0.00 | 0.00 | 58 | 1012.1 |
| 20260905041013 | 59 | 324 | 0.0 | 0.0 | 0.00 | 0.00 | 0.00 | 57 | 1012.0 |
| 20260905040514 | 59 | 324 | 0.0 | 0.0 | 0.00 | 0.00 | 0.00 | 56 | 1012.0 |
| 20260905040014 | 60 | 324 | 0.0 | 0.0 | 0.00 | 0.00 | 0.00 | 58 | 1011.9 |
| 20260905035513 | 60 | 324 | 0.0 | 0.0 | 0.00 | 0.00 | 0.00 | 55 | 1011.8 |
| 20260905035013 | 60 | 324 | 0.0 | 0.0 | 0.00 | 0.00 | 0.00 | 54 | 1011.8 |
| 20260905034522 | 61 | 324 | 0.0 | 0.0 | 0.00 | 0.00 | 0.00 | 52 | 1011.7 |
| 20260905034012 | 61 | 324 | 0.0 | 0.0 | 0.00 | 0.00 | 0.00 | 56 | 1011.6 |
| 20260905033513 | 61 | 324 | 0.0 | 0.0 | 0.00 | 0.00 | 0.00 | 53 | 1011.5 |
| 20260905033015 | 62 | 324 | 0.0 | 0.0 | 0.00 | 0.00 | 0.00 | 52 | 1011.5 |
| 20260905032513 | 62 | 324 | 0.0 | 0.0 | 0.00 | 0.00 | 0.00 | 51 | 1011.5 |
| 20260905032013 | 63 | 324 | 0.0 | 4.0 | 0.00 | 0.00 | 0.00 | 50 | 1011.4 |
| 20260905031520 | 64 | 324 | 0.0 | 4.0 | 0.00 | 0.00 | 0.00 | 52 | 1011.4 |
| 20260905031012 | 64 | 324 | 0.0 | 4.0 | 0.00 | 0.00 | 0.00 | 52 | 1011.3 |
| 20260905030513 | 64 | 324 | 0.0 | 5.0 | 0.00 | 0.00 | 0.00 | 51 | 1011.3 |
| 20260905030023 | 65 | 324 | 1.0 | 5.0 | 0.00 | 0.00 | 0.00 | 50 | 1011.3 |
| 20260905025512 | 65 | 324 | 1.0 | 5.0 | 0.00 | 0.00 | 0.00 | 49 | 1011.2 |
| 20260905025013 | 65 | 324 | 0.0 | 5.0 | 0.00 | 0.00 | 0.00 | 48 | 1011.2 |
| 20260905024641 | 65 | 324 | 1.0 | 5.0 | 0.00 | 0.00 | 0.00 | 47 | 1011.2 |
| 20260905024113 | 66 | 325 | 0.0 | 11.0 | 0.00 | 0.00 | 0.00 | 46 | 1011.1 |
| 20260905023513 | 66 | 326 | 4.0 | 11.0 | 0.00 | 0.00 | 0.00 | 45 | 1011.0 |
| 20260905023025 | 66 | 312 | 1.0 | 5.0 | 0.00 | 0.00 | 0.00 | 43 | 1010.9 |
| 20260905022512 | 67 | 322 | 0.0 | 8.0 | 0.00 | 0.00 | 0.00 | 42 | 1010.9 |
| 20260905022012 | 67 | 319 | 1.0 | 8.0 | 0.00 | 0.00 | 0.00 | 42 | 1010.9 |
| 20260905021513 | 67 | 320 | 2.0 | 10.0 | 0.00 | 0.00 | 0.00 | 41 | 1010.8 |
| 20260905021012 | 68 | 346 | 3.0 | 10.0 | 0.00 | 0.00 | 0.00 | 41 | 1010.8 |
| 20260905020516 | 68 | 312 | 1.0 | 10.0 | 0.00 | 0.00 | 0.00 | 41 | 1010.7 |
| 20260905020014 | 69 | 304 | 2.0 | 10.0 | 0.00 | 0.00 | 0.00 | 41 | 1010.8 |
| 20260905015513 | 69 | 318 | 3.0 | 10.0 | 0.00 | 0.00 | 0.00 | 40 | 1010.8 |
| 20260905015015 | 69 | 322 | 1.0 | 9.0 | 0.00 | 0.00 | 0.00 | 40 | 1010.8 |
| 20260905014513 | 70 | 318 | 3.0 | 10.0 | 0.00 | 0.00 | 0.00 | 40 | 1010.8 |
| 20260905014013 | 71 | 292 | 2.0 | 10.0 | 0.00 | 0.00 | 0.00 | 39 | 1010.8 |
| 20260905013612 | 71 | 328 | 3.0 | 9.0 | 0.00 | 0.00 | 0.00 | 38 | 1010.7 |
| 20260905013013 | 72 | 310 | 0.0 | 10.0 | 0.00 | 0.00 | 0.00 | 38 | 1010.6 |
| 20260905012614 | 72 | 289 | 3.0 | 10.0 | 0.00 | 0.00 | 0.00 | 37 | 1010.7 |
| 20260905012014 | 72 | 319 | 4.0 | 10.0 | 0.00 | 0.00 | 0.00 | 37 | 1010.6 |
| 20260905011512 | 73 | 348 | 3.0 | 10.0 | 0.00 | 0.00 | 0.00 | 36 | 1010.6 |
| 20260905011013 | 73 | 310 | 0.0 | 8.0 | 0.00 | 0.00 | 0.00 | 37 | 1010.6 |
| 20260905010514 | 72 | 342 | 4.0 | 8.0 | 0.00 | 0.00 | 0.00 | 37 | 1010.7 |
| 20260905010112 | 72 | 291 | 2.0 | 8.0 | 0.00 | 0.00 | 0.00 | 37 | 1010.7 |
| 20260905005515 | 72 | 317 | 0.0 | 7.0 | 0.00 | 0.00 | 0.00 | 37 | 1010.6 |
| 20260905005013 | 72 | 323 | 0.0 | 4.0 | 0.00 | 0.00 | 0.00 | 37 | 1010.7 |
| 20260905004516 | 72 | 324 | 0.0 | 0.0 | 0.00 | 0.00 | 0.00 | 38 | 1010.7 |
| 20260905004012 | 71 | 324 | 0.0 | 4.0 | 0.00 | 0.00 | 0.00 | 38 | 1010.6 |
| 20260905003513 | 71 | 324 | 0.0 | 5.0 | 0.00 | 0.00 | 0.00 | 38 | 1010.7 |
| 20260905003013 | 72 | 324 | 0.0 | 7.0 | 0.00 | 0.00 | 0.00 | 37 | 1010.6 |
| 20260905002513 | 72 | 321 | 2.0 | 7.0 | 0.00 | 0.00 | 0.00 | 36 | 1010.6 |
| 20260905002013 | 73 | 325 | 0.0 | 0.0 | 0.00 | 0.00 | 0.00 | 36 | 1010.5 |
| 20260905001513 | 73 | 325 | 0.0 | 0.0 | 0.00 | 0.00 | 0.00 | 36 | 1010.6 |
| 20260905001013 | 74 | 325 | 0.0 | 6.0 | 0.00 | 0.00 | 0.00 | 36 | 1010.5 |
| 20260905000513 | 74 | 325 | 1.0 | 6.0 | 0.00 | 0.00 | 0.00 | 35 | 1010.6 |
| 20260905000014 | 73 | 338 | 0.0 | 5.0 | 0.00 | 0.00 | 0.00 | 37 | 1010.6 |
| 20260904235512 | 73 | 338 | 1.0 | 6.0 | 0.00 | 0.00 | 0.00 | 36 | 1010.7 |
| 20260904235016 | 72 | 339 | 0.0 | 6.0 | 0.00 | 0.00 | 0.00 | 39 | 1010.6 |
| 20260904234513 | 71 | 339 | 0.0 | 4.0 | 0.00 | 0.00 | 0.00 | 38 | 1010.8 |
| 20260904234017 | 71 | 339 | 0.0 | 5.0 | 0.00 | 0.00 | 0.00 | 40 | 1010.7 |
| 20260904233513 | 71 | 339 | 1.0 | 5.0 | 0.00 | 0.00 | 0.00 | 40 | 1010.8 |
| 20260904233013 | 71 | 338 | 3.0 | 6.0 | 0.00 | 0.00 | 0.00 | 39 | 1010.8 |
| 20260904232513 | 71 | 327 | 0.0 | 7.0 | 0.00 | 0.00 | 0.00 | 41 | 1010.8 |
| 20260904232013 | 71 | 326 | 0.0 | 7.0 | 0.00 | 0.00 | 0.00 | 41 | 1010.8 |
| 20260904231516 | 71 | 326 | 1.0 | 7.0 | 0.00 | 0.00 | 0.00 | 41 | 1010.8 |
| 20260904231014 | 71 | 326 | 1.0 | 7.0 | 0.00 | 0.00 | 0.00 | 40 | 1010.8 |
| 20260904230513 | 71 | 326 | 0.0 | 7.0 | 0.00 | 0.00 | 0.00 | 40 | 1010.8 |
| 20260904230013 | 71 | 334 | 0.0 | 6.0 | 0.00 | 0.00 | 0.00 | 40 | 1010.8 |
| 20260904225515 | 71 | 334 | 0.0 | 6.0 | 0.00 | 0.00 | 0.00 | 39 | 1010.9 |
| 20260904225013 | 72 | 318 | 4.0 | 6.0 | 0.00 | 0.00 | 0.00 | 38 | 1010.9 |
| 20260904224519 | 72 | 317 | 0.0 | 2.0 | 0.00 | 0.00 | 0.00 | 36 | 1010.9 |
| 20260904224015 | 72 | 317 | 0.0 | 3.0 | 0.00 | 0.00 | 0.00 | 37 | 1011.0 |
| 20260904223514 | 71 | 317 | 0.0 | 7.0 | 0.00 | 0.00 | 0.00 | 38 | 1011.1 |
| 20260904223014 | 71 | 316 | 1.0 | 7.0 | 0.00 | 0.00 | 0.00 | 37 | 1011.1 |
| 20260904222613 | 71 | 292 | 0.0 | 5.0 | 0.00 | 0.00 | 0.00 | 36 | 1011.1 |
| 20260904222114 | 71 | 292 | 1.0 | 7.0 | 0.00 | 0.00 | 0.00 | 36 | 1011.2 |
| 20260904221513 | 71 | 293 | 0.0 | 7.0 | 0.00 | 0.00 | 0.00 | 37 | 1011.3 |
| 20260904221013 | 71 | 291 | 1.0 | 6.0 | 0.00 | 0.00 | 0.00 | 37 | 1011.3 |
| 20260904220513 | 71 | 297 | 2.0 | 8.0 | 0.00 | 0.00 | 0.00 | 36 | 1011.4 |
| 20260904220014 | 71 | 299 | 1.0 | 8.0 | 0.00 | 0.00 | 0.00 | 36 | 1011.4 |
| 20260904215513 | 71 | 31 | 0.0 | 0.0 | 0.00 | 0.00 | 0.00 | 37 | 1011.4 |
| 20260904215013 | 71 | 44 | 0.0 | 2.0 | 0.00 | 0.00 | 0.00 | 41 | 1011.4 |
| 20260904214533 | 71 | 76 | 0.0 | 5.0 | 0.00 | 0.00 | 0.00 | 42 | 1011.4 |
| 20260904214017 | 71 | 78 | 1.0 | 5.0 | 0.00 | 0.00 | 0.00 | 42 | 1011.4 |
| 20260904213513 | 71 | 354 | 1.0 | 5.0 | 0.00 | 0.00 | 0.00 | 41 | 1011.4 |
| 20260904213013 | 71 | 348 | 1.0 | 8.0 | 0.00 | 0.00 | 0.00 | 42 | 1011.4 |
| 20260904212513 | 71 | 350 | 3.0 | 8.0 | 0.00 | 0.00 | 0.00 | 41 | 1011.4 |
| 20260904212017 | 72 | 287 | 0.0 | 6.0 | 0.00 | 0.00 | 0.00 | 36 | 1011.4 |
| 20260904211515 | 72 | 287 | 2.0 | 9.0 | 0.00 | 0.00 | 0.00 | 36 | 1011.4 |
| 20260904211013 | 72 | 348 | 0.0 | 0.0 | 0.00 | 0.00 | 0.00 | 35 | 1011.4 |
| 20260904210514 | 72 | 16 | 0.0 | 4.0 | 0.00 | 0.00 | 0.00 | 35 | 1011.4 |
| 20260904210013 | 71 | 14 | 0.0 | 5.0 | 0.00 | 0.00 | 0.00 | 35 | 1011.5 |
| 20260904205513 | 70 | 35 | 1.0 | 6.0 | 0.00 | 0.00 | 0.00 | 36 | 1011.5 |
| 20260904205013 | 70 | 21 | 0.0 | 6.0 | 0.00 | 0.00 | 0.00 | 37 | 1011.4 |
| 20260904204513 | 70 | 23 | 0.0 | 4.0 | 0.00 | 0.00 | 0.00 | 37 | 1011.5 |
| 20260904204014 | 70 | 359 | 0.0 | 4.0 | 0.00 | 0.00 | 0.00 | 38 | 1011.5 |
| 20260904203514 | 69 | 56 | 0.0 | 2.0 | 0.00 | 0.00 | 0.00 | 38 | 1011.5 |
| 20260904203014 | 69 | 48 | 0.0 | 6.0 | 0.00 | 0.00 | 0.00 | 39 | 1011.5 |
| 20260904202514 | 69 | 50 | 3.0 | 6.0 | 0.00 | 0.00 | 0.00 | 39 | 1011.5 |
| 20260904202017 | 69 | 324 | 0.0 | 8.0 | 0.00 | 0.00 | 0.00 | 39 | 1011.6 |
| 20260904201513 | 69 | 324 | 3.0 | 8.0 | 0.00 | 0.00 | 0.00 | 39 | 1011.5 |
| 20260904200514 | 70 | 318 | 3.0 | 6.0 | 0.00 | 0.00 | 0.00 | 39 | 1011.5 |
| 20260904200024 | 70 | 320 | 0.0 | 7.0 | 0.00 | 0.00 | 0.00 | 40 | 1011.5 |
| 20260904195515 | 69 | 318 | 1.0 | 7.0 | 0.00 | 0.00 | 0.00 | 40 | 1011.5 |
| 20260904195014 | 69 | 289 | 1.0 | 9.0 | 0.00 | 0.00 | 0.00 | 41 | 1011.6 |
| 20260904194516 | 69 | 291 | 1.0 | 9.0 | 0.00 | 0.00 | 0.00 | 41 | 1011.5 |
| 20260904194013 | 69 | 299 | 2.0 | 10.0 | 0.00 | 0.00 | 0.00 | 42 | 1011.6 |
| 20260904193514 | 69 | 285 | 2.0 | 8.0 | 0.00 | 0.00 | 0.00 | 41 | 1011.7 |
| 20260904193015 | 69 | 340 | 2.0 | 10.0 | 0.00 | 0.00 | 0.00 | 41 | 1011.7 |
| 20260904192516 | 69 | 330 | 5.0 | 10.0 | 0.00 | 0.00 | 0.00 | 41 | 1011.8 |
| 20260904192013 | 69 | 345 | 1.0 | 9.0 | 0.00 | 0.00 | 0.00 | 41 | 1011.8 |
| 20260904191519 | 69 | 322 | 4.0 | 13.0 | 0.00 | 0.00 | 0.00 | 41 | 1011.8 |
| 20260904191013 | 70 | 311 | 2.0 | 11.0 | 0.00 | 0.00 | 0.00 | 41 | 1011.8 |
| 20260904190614 | 70 | 335 | 3.0 | 11.0 | 0.00 | 0.00 | 0.00 | 41 | 1011.8 |
| 20260904190013 | 71 | 341 | 0.0 | 7.0 | 0.00 | 0.00 | 0.00 | 38 | 1011.8 |
| 20260904185513 | 71 | 339 | 0.0 | 3.0 | 0.00 | 0.00 | 0.00 | 39 | 1011.8 |
| 20260904185014 | 70 | 331 | 0.0 | 3.0 | 0.00 | 0.00 | 0.00 | 42 | 1011.9 |
| 20260904184520 | 69 | 326 | 0.0 | 3.0 | 0.00 | 0.00 | 0.00 | 42 | 1011.9 |
| 20260904184014 | 69 | 311 | 0.0 | 5.0 | 0.00 | 0.00 | 0.00 | 43 | 1012.0 |
| 20260904183514 | 68 | 311 | 0.0 | 5.0 | 0.00 | 0.00 | 0.00 | 45 | 1012.0 |
| 20260904183013 | 67 | 304 | 0.0 | 6.0 | 0.00 | 0.00 | 0.00 | 46 | 1012.0 |
| 20260904182514 | 67 | 304 | 0.0 | 7.0 | 0.00 | 0.00 | 0.00 | 47 | 1012.0 |
| 20260904182013 | 66 | 326 | 0.0 | 8.0 | 0.00 | 0.00 | 0.00 | 50 | 1012.0 |
| 20260904181513 | 66 | 314 | 4.0 | 8.0 | 0.00 | 0.00 | 0.00 | 50 | 1012.0 |
| 20260904181017 | 66 | 232 | 0.0 | 6.0 | 0.00 | 0.00 | 0.00 | 52 | 1012.0 |
| 20260904180512 | 67 | 218 | 0.0 | 4.0 | 0.00 | 0.00 | 0.00 | 51 | 1012.0 |
| 20260904180014 | 66 | 218 | 0.0 | 0.0 | 0.00 | 0.00 | 0.00 | 53 | 1012.0 |
| 20260904175514 | 66 | 218 | 0.0 | 6.0 | 0.00 | 0.00 | 0.00 | 56 | 1012.0 |
| 20260904175014 | 65 | 218 | 0.0 | 6.0 | 0.00 | 0.00 | 0.00 | 55 | 1012.0 |
| 20260904174516 | 66 | 203 | 0.0 | 0.0 | 0.00 | 0.00 | 0.00 | 56 | 1012.0 |
| 20260904174013 | 65 | 201 | 0.0 | 0.0 | 0.00 | 0.00 | 0.00 | 58 | 1012.0 |
| 20260904173514 | 65 | 198 | 0.0 | 0.0 | 0.00 | 0.00 | 0.00 | 60 | 1012.0 |
| 20260904173014 | 65 | 184 | 0.0 | 0.0 | 0.00 | 0.00 | 0.00 | 60 | 1011.9 |
| 20260904172513 | 64 | 184 | 0.0 | 0.0 | 0.00 | 0.00 | 0.00 | 62 | 1011.9 |
| 20260904172013 | 64 | 184 | 0.0 | 0.0 | 0.00 | 0.00 | 0.00 | 63 | 1011.9 |
| 20260904171514 | 63 | 184 | 0.0 | 0.0 | 0.00 | 0.00 | 0.00 | 65 | 1011.8 |
| 20260904171014 | 63 | 184 | 0.0 | 4.0 | 0.00 | 0.00 | 0.00 | 67 | 1011.9 |
| 20260904170516 | 63 | 184 | 1.0 | 6.0 | 0.00 | 0.00 | 0.00 | 67 | 1011.9 |
| 20260904170017 | 63 | 184 | 3.0 | 6.0 | 0.00 | 0.00 | 0.00 | 68 | 1011.8 |
| 20260904165514 | 62 | 184 | 0.0 | 0.0 | 0.00 | 0.00 | 0.00 | 69 | 1011.8 |
| 20260904165015 | 62 | 184 | 0.0 | 5.0 | 0.00 | 0.00 | 0.00 | 70 | 1011.8 |
| 20260904164513 | 61 | 184 | 1.0 | 6.0 | 0.00 | 0.00 | 0.00 | 72 | 1011.8 |
| 20260904164014 | 61 | 184 | 2.0 | 9.0 | 0.00 | 0.00 | 0.00 | 72 | 1011.8 |
| 20260904163513 | 61 | 185 | 5.0 | 9.0 | 0.00 | 0.00 | 0.00 | 73 | 1011.8 |
| 20260904163013 | 60 | 305 | 0.0 | 0.0 | 0.00 | 0.00 | 0.00 | 74 | 1011.8 |
| 20260904162517 | 60 | 308 | 0.0 | 0.0 | 0.00 | 0.00 | 0.00 | 76 | 1011.7 |
| 20260904162014 | 60 | 308 | 0.0 | 0.0 | 0.00 | 0.00 | 0.00 | 76 | 1011.7 |
| 20260904161515 | 60 | 308 | 0.0 | 7.0 | 0.00 | 0.00 | 0.00 | 77 | 1011.6 |
| 20260904161013 | 60 | 319 | 0.0 | 6.0 | 0.00 | 0.00 | 0.00 | 78 | 1011.6 |
| 20260904160519 | 60 | 354 | 0.0 | 0.0 | 0.00 | 0.00 | 0.00 | 78 | 1011.6 |
| 20260904160016 | 59 | 354 | 0.0 | 0.0 | 0.00 | 0.00 | 0.00 | 80 | 1011.6 |
| 20260904155514 | 59 | 350 | 0.0 | 0.0 | 0.00 | 0.00 | 0.00 | 80 | 1011.7 |
| 20260904155014 | 59 | 359 | 0.0 | 1.0 | 0.00 | 0.00 | 0.00 | 80 | 1011.6 |
| 20260904154513 | 59 | 359 | 0.0 | 1.0 | 0.00 | 0.00 | 0.00 | 80 | 1011.6 |
| 20260904154014 | 59 | 280 | 0.0 | 0.0 | 0.00 | 0.00 | 0.00 | 80 | 1011.7 |
| 20260904153515 | 59 | 280 | 0.0 | 0.0 | 0.00 | 0.00 | 0.00 | 80 | 1011.5 |
| 20260904153102 | 59 | 280 | 0.0 | 0.0 | 0.00 | 0.00 | 0.00 | 80 | 1011.5 |
| 20260904143513 | 56 | 280 | 0.0 | 0.0 | 0.00 | 0.00 | 0.00 | 83 | 1011.2 |
| 20260904143020 | 55 | 280 | 0.0 | 0.0 | 0.00 | 0.00 | 0.00 | 84 | 1011.2 |
| 20260904142014 | 55 | 280 | 0.0 | 0.0 | 0.00 | 0.00 | 0.00 | 84 | 1011.1 |
| 20260904141515 | 55 | 280 | 0.0 | 0.0 | 0.00 | 0.00 | 0.00 | 84 | 1011.1 |
| 20260904134015 | 52 | 280 | 0.0 | 0.0 | 0.00 | 0.00 | 0.00 | 86 | 1010.8 |
| 20260904133513 | 52 | 280 | 0.0 | 0.0 | 0.00 | 0.00 | 0.00 | 86 | 1010.7 |
| 20260904133014 | 52 | 280 | 0.0 | 0.0 | 0.00 | 0.00 | 0.00 | 87 | 1010.7 |
| 20260904132520 | 52 | 280 | 0.0 | 0.0 | 0.00 | 0.00 | 0.00 | 87 | 1010.7 |